| time (UTC) | temp C | wind direction | speed KPH | gust KPH | rain 1hr cm | rain 24hr cm | rain mn cm | humidity % | barometer mb |
| 20260906053003 | 11 | 230 | 1.6 | 4.8 | 0.00 | 0.00 | 0.00 | 85 | 1024.9 |
| 20260906052003 | 11 | 248 | 3.2 | 11.3 | 0.00 | 0.00 | 0.00 | 85 | 1024.8 |
| 20260906051003 | 11 | 258 | 3.2 | 9.7 | 0.00 | 0.00 | 0.00 | 85 | 1024.8 |
| 20260906050003 | 10 | 246 | 3.2 | 9.7 | 0.00 | 0.00 | 0.00 | 85 | 1024.7 |
| 20260906045219 | 10 | 262 | 4.8 | 12.9 | 0.00 | 0.00 | 0.00 | 85 | 1024.6 |
| 20260906044006 | 10 | 255 | 3.2 | 9.7 | 0.00 | 0.00 | 0.00 | 84 | 1024.6 |
| 20260906043218 | 10 | 257 | 3.2 | 11.3 | 0.00 | 0.00 | 0.00 | 84 | 1024.6 |
| 20260906042007 | 11 | 268 | 3.2 | 12.9 | 0.00 | 0.00 | 0.00 | 84 | 1024.5 |
| 20260906041003 | 11 | 283 | 3.2 | 8.0 | 0.00 | 0.00 | 0.00 | 84 | 1024.4 |
| 20260906040004 | 11 | 272 | 1.6 | 11.3 | 0.00 | 0.00 | 0.00 | 84 | 1024.2 |
| 20260906035003 | 11 | 271 | 1.6 | 11.3 | 0.00 | 0.00 | 0.00 | 83 | 1024.2 |
| 20260906034006 | 11 | 283 | 3.2 | 6.4 | 0.00 | 0.00 | 0.00 | 84 | 1024.2 |
| 20260906033003 | 11 | 281 | 4.8 | 11.3 | 0.00 | 0.00 | 0.00 | 84 | 1024.1 |
| 20260906032003 | 11 | 267 | 3.2 | 14.5 | 0.00 | 0.00 | 0.00 | 84 | 1023.9 |
| 20260906031003 | 11 | 0 | 0.0 | 8.0 | 0.00 | 0.00 | 0.00 | 83 | 1023.8 |
| 20260906030003 | 11 | 209 | 1.6 | 4.8 | 0.00 | 0.00 | 0.00 | 83 | 1024.0 |
| 20260906025006 | 11 | 260 | 4.8 | 6.4 | 0.00 | 0.00 | 0.00 | 83 | 1023.8 |
| 20260906024006 | 11 | 265 | 3.2 | 12.9 | 0.00 | 0.00 | 0.00 | 82 | 1023.8 |
| 20260906023003 | 11 | 251 | 3.2 | 9.7 | 0.00 | 0.00 | 0.00 | 82 | 1023.9 |
| 20260906022006 | 11 | 278 | 1.6 | 6.4 | 0.00 | 0.00 | 0.00 | 82 | 1023.8 |
| 20260906021217 | 12 | 5 | 3.2 | 8.0 | 0.00 | 0.00 | 0.00 | 82 | 1023.7 |
| 20260906020003 | 12 | 294 | 3.2 | 11.3 | 0.00 | 0.00 | 0.00 | 82 | 1023.7 |
| 20260906015217 | 12 | 259 | 0.0 | 6.4 | 0.00 | 0.00 | 0.00 | 82 | 1023.6 |
| 20260906014003 | 12 | 240 | 1.6 | 9.7 | 0.00 | 0.00 | 0.00 | 82 | 1023.4 |
| 20260906013006 | 12 | 234 | 1.6 | 4.8 | 0.00 | 0.00 | 0.00 | 82 | 1023.3 |
| 20260906012003 | 12 | 306 | 0.0 | 8.0 | 0.00 | 0.00 | 0.00 | 82 | 1023.2 |
| 20260906011006 | 12 | 245 | 1.6 | 4.8 | 0.00 | 0.00 | 0.00 | 82 | 1023.1 |
| 20260906010003 | 12 | 230 | 1.6 | 4.8 | 0.00 | 0.00 | 0.00 | 82 | 1023.1 |
| 20260906005006 | 12 | 0 | 0.0 | 3.2 | 0.00 | 0.00 | 0.00 | 82 | 1023.0 |
| 20260906004006 | 12 | 330 | 1.6 | 3.2 | 0.00 | 0.00 | 0.00 | 81 | 1022.9 |
| 20260906003003 | 12 | 237 | 1.6 | 4.8 | 0.00 | 0.00 | 0.00 | 81 | 1022.9 |
| 20260906002006 | 13 | 0 | 0.0 | 4.8 | 0.00 | 0.00 | 0.00 | 80 | 1022.9 |
| 20260906001003 | 13 | 0 | 0.0 | 0.0 | 0.00 | 0.00 | 0.00 | 79 | 1022.9 |
| 20260906000003 | 13 | 0 | 0.0 | 0.0 | 0.00 | 0.00 | 0.00 | 79 | 1022.8 |
| 20260905235006 | 13 | 306 | 1.6 | 6.4 | 0.00 | 0.00 | 0.00 | 78 | 1022.7 |
| 20260905234003 | 13 | 0 | 0.0 | 3.2 | 0.00 | 0.00 | 0.00 | 77 | 1022.6 |
| 20260905233003 | 14 | 0 | 0.0 | 0.0 | 0.00 | 0.03 | 0.00 | 76 | 1022.5 |
| 20260905232003 | 14 | 257 | 1.6 | 1.6 | 0.00 | 0.03 | 0.00 | 77 | 1022.4 |
| 20260905231003 | 14 | 267 | 1.6 | 9.7 | 0.00 | 0.03 | 0.00 | 76 | 1022.3 |
| 20260905230003 | 14 | 291 | 1.6 | 11.3 | 0.00 | 0.03 | 0.00 | 77 | 1022.1 |
| 20260905225003 | 14 | 325 | 0.0 | 8.0 | 0.00 | 0.03 | 0.00 | 77 | 1022.1 |
| 20260905224006 | 14 | 0 | 0.0 | 6.4 | 0.00 | 0.05 | 0.00 | 77 | 1022.1 |
| 20260905223006 | 13 | 123 | 1.6 | 4.8 | 0.00 | 0.05 | 0.00 | 78 | 1022.0 |
| 20260905222006 | 13 | 227 | 1.6 | 4.8 | 0.00 | 0.05 | 0.00 | 78 | 1021.9 |
| 20260905221218 | 13 | 207 | 1.6 | 4.8 | 0.00 | 0.05 | 0.00 | 77 | 1021.8 |
| 20260905220003 | 14 | 218 | 1.6 | 4.8 | 0.00 | 0.05 | 0.00 | 76 | 1021.7 |
| 20260905215006 | 14 | 219 | 1.6 | 4.8 | 0.00 | 0.05 | 0.05 | 76 | 1021.7 |
| 20260905214003 | 14 | 235 | 0.0 | 6.4 | 0.00 | 0.08 | 0.05 | 76 | 1021.5 |
| 20260905213006 | 14 | 0 | 0.0 | 0.0 | 0.00 | 0.08 | 0.05 | 75 | 1021.5 |
| 20260905212006 | 14 | 0 | 0.0 | 0.0 | 0.00 | 0.08 | 0.05 | 74 | 1021.4 |
| 20260905211003 | 14 | 0 | 0.0 | 0.0 | 0.00 | 0.10 | 0.05 | 73 | 1021.3 |
| 20260905210006 | 15 | 200 | 3.2 | 4.8 | 0.00 | 0.10 | 0.05 | 73 | 1021.3 |
| 20260905205003 | 15 | 229 | 1.6 | 9.7 | 0.00 | 0.13 | 0.05 | 73 | 1021.3 |
| 20260905204217 | 15 | 249 | 1.6 | 6.4 | 0.00 | 0.13 | 0.05 | 73 | 1021.2 |
| 20260905203003 | 14 | 235 | 1.6 | 4.8 | 0.00 | 0.15 | 0.05 | 73 | 1021.1 |
| 20260905202003 | 14 | 260 | 1.6 | 11.3 | 0.00 | 0.20 | 0.05 | 73 | 1021.0 |
| 20260905201006 | 15 | 231 | 0.0 | 4.8 | 0.00 | 0.51 | 0.05 | 73 | 1020.9 |
| 20260905200006 | 15 | 0 | 0.0 | 3.2 | 0.00 | 0.71 | 0.05 | 73 | 1020.9 |
| 20260905195006 | 15 | 0 | 0.0 | 0.0 | 0.00 | 0.81 | 0.05 | 72 | 1020.8 |
| 20260905194006 | 15 | 314 | 1.6 | 4.8 | 0.00 | 0.94 | 0.05 | 72 | 1020.7 |
| 20260905193217 | 15 | 263 | 3.2 | 11.3 | 0.00 | 1.02 | 0.05 | 71 | 1020.5 |
| 20260905192006 | 15 | 248 | 0.0 | 9.7 | 0.00 | 1.02 | 0.05 | 71 | 1020.3 |
| 20260905191006 | 15 | 0 | 0.0 | 0.0 | 0.00 | 1.02 | 0.05 | 70 | 1020.3 |
| 20260905190003 | 16 | 253 | 1.6 | 4.8 | 0.00 | 1.02 | 0.05 | 69 | 1020.2 |
| 20260905185003 | 16 | 229 | 1.6 | 4.8 | 0.00 | 1.02 | 0.05 | 68 | 1020.0 |
| 20260905184006 | 16 | 192 | 1.6 | 6.4 | 0.00 | 1.02 | 0.05 | 67 | 1020.0 |
| 20260905183003 | 17 | 242 | 1.6 | 11.3 | 0.00 | 1.02 | 0.05 | 66 | 1019.8 |
| 20260905182217 | 17 | 262 | 1.6 | 11.3 | 0.00 | 1.02 | 0.05 | 63 | 1019.7 |
| 20260905181003 | 17 | 261 | 3.2 | 8.0 | 0.00 | 1.02 | 0.05 | 62 | 1019.5 |
| 20260905180218 | 17 | 265 | 1.6 | 11.3 | 0.00 | 1.02 | 0.05 | 62 | 1019.3 |
| 20260905175006 | 18 | 274 | 1.6 | 6.4 | 0.00 | 1.02 | 0.05 | 61 | 1019.2 |
| 20260905174003 | 18 | 281 | 3.2 | 11.3 | 0.00 | 1.02 | 0.05 | 60 | 1019.1 |
| 20260905173003 | 18 | 243 | 1.6 | 8.0 | 0.00 | 1.02 | 0.05 | 60 | 1019.0 |
| 20260905172006 | 18 | 98 | 1.6 | 4.8 | 0.00 | 1.02 | 0.05 | 59 | 1018.9 |
| 20260905171006 | 18 | 280 | 3.2 | 6.4 | 0.00 | 1.02 | 0.05 | 58 | 1018.8 |
| 20260905170003 | 18 | 188 | 3.2 | 12.9 | 0.00 | 1.02 | 0.05 | 58 | 1018.6 |
| 20260905165003 | 19 | 203 | 4.8 | 14.5 | 0.00 | 1.02 | 0.05 | 57 | 1018.5 |
| 20260905164006 | 19 | 245 | 6.4 | 14.5 | 0.00 | 1.02 | 0.05 | 55 | 1018.3 |
| 20260905163003 | 20 | 241 | 4.8 | 24.1 | 0.00 | 1.02 | 0.05 | 54 | 1018.3 |
| 20260905162003 | 20 | 277 | 6.4 | 30.6 | 0.00 | 1.02 | 0.05 | 53 | 1018.1 |
| 20260905160006 | 20 | 276 | 8.0 | 24.1 | 0.00 | 1.02 | 0.05 | 51 | 1017.7 |
| 20260905155006 | 21 | 246 | 8.0 | 20.9 | 0.00 | 1.02 | 0.05 | 50 | 1017.7 |
| 20260905154006 | 21 | 272 | 8.0 | 19.3 | 0.00 | 1.02 | 0.05 | 51 | 1017.5 |
| 20260905153003 | 21 | 259 | 8.0 | 22.5 | 0.00 | 1.02 | 0.05 | 51 | 1017.6 |
| 20260905152003 | 21 | 249 | 8.0 | 25.7 | 0.00 | 1.02 | 0.05 | 52 | 1017.4 |
| 20260905151003 | 21 | 254 | 8.0 | 22.5 | 0.00 | 1.02 | 0.05 | 52 | 1017.4 |
| 20260905150003 | 21 | 254 | 8.0 | 22.5 | 0.00 | 1.02 | 0.05 | 52 | 1017.3 |
| 20260905145221 | 21 | 225 | 6.4 | 22.5 | 0.00 | 1.02 | 0.05 | 52 | 1017.1 |
| 20260905144006 | 21 | 250 | 9.7 | 19.3 | 0.00 | 1.02 | 0.05 | 52 | 1017.4 |
| 20260905143006 | 21 | 220 | 8.0 | 33.8 | 0.00 | 1.02 | 0.05 | 52 | 1017.3 |
| 20260905142003 | 21 | 261 | 11.3 | 37.0 | 0.00 | 1.02 | 0.05 | 51 | 1017.2 |
| 20260905141006 | 22 | 266 | 9.7 | 27.4 | 0.00 | 1.02 | 0.05 | 51 | 1017.3 |
| 20260905140006 | 21 | 262 | 11.3 | 29.0 | 0.00 | 1.02 | 0.05 | 51 | 1017.3 |
| 20260905135006 | 21 | 253 | 11.3 | 27.4 | 0.00 | 1.02 | 0.05 | 51 | 1017.2 |
| 20260905134003 | 21 | 254 | 9.7 | 33.8 | 0.00 | 1.02 | 0.05 | 50 | 1017.3 |
| 20260905133003 | 21 | 282 | 12.9 | 25.7 | 0.00 | 1.02 | 0.05 | 52 | 1017.1 |
| 20260905132003 | 21 | 288 | 11.3 | 24.1 | 0.00 | 1.02 | 0.05 | 49 | 1017.1 |
| 20260905131007 | 21 | 250 | 11.3 | 22.5 | 0.00 | 1.02 | 0.05 | 49 | 1017.1 |
| 20260905130006 | 21 | 265 | 11.3 | 33.8 | 0.00 | 1.02 | 0.05 | 51 | 1017.0 |
| 20260905125006 | 21 | 277 | 9.7 | 24.1 | 0.00 | 1.02 | 0.05 | 51 | 1017.0 |
| 20260905124220 | 21 | 238 | 8.0 | 27.4 | 0.00 | 1.02 | 0.05 | 51 | 1017.0 |
| 20260905123220 | 21 | 233 | 9.7 | 22.5 | 0.00 | 1.02 | 0.05 | 54 | 1016.9 |
| 20260905122003 | 20 | 241 | 9.7 | 25.7 | 0.00 | 1.02 | 0.05 | 56 | 1017.0 |
| 20260905121007 | 20 | 234 | 9.7 | 22.5 | 0.00 | 1.02 | 0.05 | 59 | 1017.0 |
| 20260905120220 | 20 | 275 | 11.3 | 24.1 | 0.00 | 1.02 | 0.05 | 56 | 1017.0 |
| 20260905115003 | 20 | 244 | 9.7 | 25.7 | 0.00 | 1.02 | 0.05 | 56 | 1016.9 |
| 20260905114003 | 21 | 262 | 8.0 | 30.6 | 0.00 | 1.02 | 0.05 | 54 | 1017.0 |
| 20260905113006 | 20 | 227 | 11.3 | 25.7 | 0.00 | 1.02 | 0.05 | 54 | 1017.0 |
| 20260905112007 | 20 | 251 | 8.0 | 29.0 | 0.00 | 1.02 | 0.05 | 56 | 1016.9 |
| 20260905111003 | 20 | 278 | 6.4 | 30.6 | 0.00 | 1.02 | 0.05 | 58 | 1016.9 |
| 20260905110006 | 20 | 229 | 8.0 | 25.7 | 0.00 | 1.02 | 0.05 | 58 | 1017.1 |
| 20260905105003 | 20 | 224 | 9.7 | 20.9 | 0.00 | 1.02 | 0.05 | 57 | 1017.0 |
| 20260905104006 | 20 | 240 | 9.7 | 29.0 | 0.00 | 1.02 | 0.05 | 57 | 1017.1 |
| 20260905103218 | 20 | 264 | 8.0 | 29.0 | 0.00 | 1.02 | 0.05 | 59 | 1017.1 |
| 20260905102007 | 19 | 247 | 8.0 | 20.9 | 0.00 | 1.02 | 0.05 | 64 | 1017.1 |
| 20260905101003 | 19 | 255 | 4.8 | 27.4 | 0.00 | 1.02 | 0.05 | 60 | 1017.1 |
| 20260905100003 | 19 | 235 | 6.4 | 16.1 | 0.00 | 1.02 | 0.05 | 63 | 1017.1 |
| 20260905095003 | 19 | 211 | 9.7 | 22.5 | 0.00 | 1.02 | 0.05 | 62 | 1017.2 |
| 20260905094221 | 19 | 232 | 8.0 | 24.1 | 0.00 | 1.02 | 0.05 | 63 | 1017.0 |
| 20260905093003 | 18 | 246 | 8.0 | 27.4 | 0.00 | 1.02 | 0.05 | 63 | 1016.9 |
| 20260905092221 | 18 | 232 | 8.0 | 27.4 | 0.00 | 1.02 | 0.05 | 64 | 1016.8 |
| 20260905091003 | 18 | 232 | 8.0 | 25.7 | 0.00 | 1.02 | 0.05 | 64 | 1016.8 |
| 20260905090007 | 18 | 238 | 9.7 | 24.1 | 0.00 | 1.02 | 0.05 | 66 | 1016.8 |
| 20260905085006 | 18 | 238 | 8.0 | 24.1 | 0.00 | 1.02 | 0.05 | 66 | 1016.8 |
| 20260905084006 | 18 | 258 | 9.7 | 24.1 | 0.00 | 1.02 | 0.05 | 69 | 1016.5 |
| 20260905083006 | 18 | 213 | 9.7 | 24.1 | 0.00 | 1.02 | 0.05 | 69 | 1016.4 |
| 20260905082006 | 18 | 244 | 8.0 | 24.1 | 0.00 | 1.02 | 0.05 | 69 | 1016.4 |
| 20260905081003 | 18 | 210 | 6.4 | 20.9 | 0.00 | 1.02 | 0.05 | 72 | 1016.3 |
| 20260905080004 | 17 | 234 | 4.8 | 14.5 | 0.00 | 1.02 | 0.05 | 72 | 1016.3 |
| 20260905075006 | 17 | 231 | 6.4 | 14.5 | 0.00 | 1.02 | 0.05 | 73 | 1016.3 |
| 20260905074006 | 17 | 219 | 8.0 | 20.9 | 0.00 | 1.02 | 0.05 | 75 | 1016.3 |
| 20260905073006 | 17 | 201 | 8.0 | 14.5 | 0.00 | 1.02 | 0.05 | 76 | 1016.2 |
| 20260905072220 | 16 | 196 | 6.4 | 17.7 | 0.00 | 1.02 | 0.05 | 77 | 1016.2 |
| 20260905071006 | 16 | 200 | 6.4 | 12.9 | 0.00 | 1.02 | 0.05 | 79 | 1016.2 |
| 20260905070004 | 16 | 197 | 6.4 | 19.3 | 0.00 | 1.02 | 0.05 | 81 | 1016.1 |
| 20260905065006 | 16 | 200 | 6.4 | 16.1 | 0.00 | 1.02 | 0.05 | 82 | 1016.1 |
| 20260905064006 | 15 | 199 | 6.4 | 16.1 | 0.00 | 1.02 | 0.05 | 83 | 1016.1 |
| 20260905063218 | 15 | 201 | 8.0 | 16.1 | 0.00 | 1.02 | 0.05 | 84 | 1016.0 |
| 20260905062006 | 15 | 200 | 6.4 | 19.3 | 0.00 | 1.02 | 0.05 | 85 | 1015.9 |
| 20260905061218 | 14 | 201 | 6.4 | 12.9 | 0.00 | 1.02 | 0.05 | 87 | 1015.8 |
| 20260905060220 | 14 | 199 | 6.4 | 12.9 | 0.00 | 1.02 | 0.05 | 89 | 1015.7 |
| 20260905055003 | 13 | 194 | 4.8 | 11.3 | 0.00 | 1.02 | 0.05 | 91 | 1015.4 |
| 20260905054006 | 13 | 199 | 6.4 | 12.9 | 0.00 | 1.02 | 0.05 | 92 | 1015.3 |